QPF
0.06 0.06 0.04 0.02 0.02 0.04 0.06 0.03 0.02 0.01 0.01 0.01 0.01 0.01 0.02 0.02 0.03 0.03 0.02 0.03 0.03 0.04 0.05 0.07 0.08 0.07 0.05 0.04 0.04 0.03 0.03 0.03 0.04 0.04 0.04 0.04 0.04 0.04 0.06 0.11 0.11 0.07 0.05
0.06 0.08 0.07 0.05 0.04 0.04 0.05 0.03 0.03 0.03 0.02 0.02 0.02 0.02 0.02 0.02 0.02 0.03 0.02 0.02 0.02 0.02 0.03 0.05 0.06 0.06 0.06 0.05 0.05 0.05 0.05 0.06 0.06 0.05 0.05 0.05 0.05 0.05 0.05 0.07 0.08 0.08 0.08
0.07 0.08 0.10 0.10 0.08 0.06 0.05 0.06 0.05 0.06 0.05 0.04 0.03 0.02 0.01 0.01 0.02 0.03 0.03 0.02 0.02 0.02 0.03 0.04 0.06 0.06 0.06 0.06 0.05 0.06 0.07 0.07 0.07 0.06 0.05 0.05 0.05 0.05 0.05 0.06 0.06 0.06 0.06
0.08 0.08 0.09 0.09 0.09 0.09 0.09 0.08 0.06 0.06 0.05 0.03 0.02 0.02 0.02 0.02 0.04 0.03 0.03 0.02 0.02 0.01 0.02 0.03 0.06 0.06 0.06 0.06 0.06 0.05 0.05 0.05 0.05 0.05 0.05 0.05 0.05 0.05 0.04 0.05 0.04 0.04 0.04
0.07 0.08 0.09 0.09 0.10 0.10 0.10 0.08 0.07 0.06 0.05 0.03 0.03 0.03 0.03 0.04 0.03 0.03 0.03 0.04 0.03 0.02 0.01 0.02 0.05 0.06 0.06 0.06 0.07 0.06 0.06 0.08 0.06 0.05 0.06 0.06 0.03 0.04 0.03 0.03 0.04 0.04 0.04
0.06 0.06 0.06 0.07 0.10 0.12 0.10 0.07 0.07 0.06 0.05 0.04 0.03 0.03 0.03 0.03 0.03 0.02 0.02 0.02 0.02 0.01 0.01 0.01 0.02 0.04 0.05 0.07 0.07 0.08 0.09 0.09 0.08 0.07 0.07 0.05 0.04 0.03 0.02 0.02 0.02 0.03 0.04
0.06 0.06 0.04 0.04 0.08 0.10 0.10 0.07 0.05 0.04 0.04 0.03 0.03 0.03 0.02 0.03 0.02 0.01 0.01 0.01 0.01 0.01 0.01 0.02 0.02 0.02 0.03 0.05 0.07 0.09 0.09 0.09 0.09 0.09 0.08 0.05 0.04 0.02 0.02 0.01 0.02 0.03 0.03
0.08 0.07 0.05 0.04 0.04 0.05 0.05 0.04 0.04 0.03 0.02 0.02 0.03 0.03 0.02 0.02 0.02 0.01 0.01 0.01 0.01 0.01 0.01 0.01 0.02 0.02 0.02 0.02 0.03 0.05 0.07 0.08 0.08 0.08 0.08 0.06 0.04 0.02 0.02 0.01 0.02 0.02 0.02
0.09 0.07 0.05 0.05 0.03 0.03 0.03 0.02 0.02 0.02 0.02 0.02 0.02 0.02 0.02 0.01 0.02 0.02 0.01 0.01 0.01 0.01 0.01 0.01 0.02 0.02 0.01 0.02 0.02 0.03 0.04 0.05 0.06 0.07 0.06 0.06 0.05 0.03 0.02 0.02 0.02 0.02 0.02
0.07 0.06 0.05 0.05 0.04 0.02 0.02 0.02 0.02 0.03 0.04 0.03 0.02 0.02 0.02 0.01 0.01 0.02 0.03 0.02 0.02 0.01 0.01 0.01 0.02 0.02 0.02 0.02 0.02 0.02 0.02 0.02 0.03 0.04 0.04 0.05 0.05 0.04 0.03 0.02 0.01 0.02 0.02
0.09 0.07 0.05 0.04 0.04 0.03 0.02 0.01 0.01 0.02 0.04 0.03 0.02 0.02 0.03 0.02 0.02 0.01 0.02 0.03 0.03 0.02 0.02 0.02 0.02 0.01 0.01 0.01 0.01 0.02 0.03 0.03 0.02 0.02 0.02 0.03 0.04 0.04 0.05 0.04 0.02 0.02 0.02
0.09 0.09 0.08 0.06 0.04 0.03 0.03 0.03 0.02 0.02 0.03 0.02 0.02 0.02 0.02 0.03 0.03 0.02 0.02 0.02 0.02 0.02 0.02 0.02 0.02 0.02 0.01 0.01 0.01 0.01 0.01 0.02 0.02 0.02 0.01 0.01 0.02 0.03 0.04 0.06 0.05 0.03 0.02
0.09 0.08 0.06 0.05 0.04 0.03 0.03 0.03 0.02 0.02 0.02 0.01 0.02 0.02 0.02 0.02 0.03 0.03 0.02 0.02 0.01 0.01 0.02 0.02 0.02 0.02 0.01 0.01 0.01 0.01 0.01 0.01 0.01 0.01 0.02 0.02 0.02 0.02 0.02 0.04 0.05 0.05 0.02
0.10 0.08 0.07 0.04 0.03 0.03 0.03 0.02 0.02 0.03 0.03 0.02 0.02 0.02 0.02 0.02 0.02 0.03 0.03 0.02 0.01 0.01 0.01 0.01 0.02 0.01 0.01 0.01 0.01 0.01 0.01 0.01 0.01 0.01 0.01 0.01 0.01 0.01 0.02 0.03 0.05 0.07 0.06
0.14 0.12 0.09 0.06 0.05 0.05 0.04 0.02 0.02 0.02 0.03 0.03 0.03 0.03 0.02 0.02 0.02 0.03 0.04 0.04 0.03 0.02 0.01 0.01 0.01 0.01 0.01 0.00 0.01 0.01 0.01 0.01 0.01 0.01 0.01 0.01 0.01 0.01 0.02 0.03 0.05 0.08 0.11
0.18 0.17 0.14 0.09 0.07 0.06 0.05 0.05 0.03 0.04 0.03 0.02 0.02 0.02 0.02 0.01 0.02 0.03 0.03 0.04 0.03 0.03 0.02 0.01 0.00 0.00 0.01 0.00 0.00 0.00 0.01 0.01 0.01 0.02 0.02 0.03 0.02 0.02 0.03 0.03 0.03 0.03 0.05
0.14 0.16 0.10 0.09 0.09 0.08 0.06 0.05 0.04 0.04 0.03 0.03 0.02 0.02 0.02 0.02 0.03 0.03 0.03 0.04 0.03 0.02 0.01 0.00 0.00 0.00 0.00 0.00 0.00 0.00 0.00 0.00 0.01 0.02 0.02 0.03 0.03 0.04 0.04 0.03 0.02 0.02 0.02
0.10 0.12 0.12 0.09 0.07 0.07 0.07 0.06 0.06 0.06 0.05 0.03 0.02 0.02 0.01 0.01 0.02 0.04 0.04 0.03 0.02 0.02 0.01 0.01 0.00 0.00 0.00 0.00 0.00 0.00 0.00 0.00 0.01 0.01 0.02 0.03 0.03 0.04 0.04 0.03 0.02 0.02 0.02
0.07 0.07 0.11 0.12 0.09 0.06 0.04 0.04 0.04 0.05 0.07 0.06 0.05 0.02 0.01 0.01 0.01 0.02 0.02 0.02 0.02 0.02 0.02 0.01 0.01 0.00 0.01 0.00 0.01 0.00 0.00 0.00 0.00 0.01 0.01 0.02 0.02 0.03 0.03 0.03 0.03 0.03 0.03
0.03 0.03 0.05 0.09 0.08 0.07 0.04 0.02 0.02 0.03 0.03 0.04 0.05 0.04 0.03 0.02 0.01 0.01 0.02 0.02 0.02 0.02 0.02 0.02 0.01 0.01 0.01 0.01 0.01 0.00 0.00 0.00 0.00 0.00 0.01 0.01 0.02 0.02 0.02 0.02 0.02 0.02 0.02
0.03 0.03 0.03 0.05 0.07 0.05 0.04 0.03 0.02 0.02 0.01 0.02 0.02 0.02 0.03 0.03 0.03 0.02 0.03 0.02 0.02 0.02 0.02 0.02 0.02 0.01 0.01 0.01 0.01 0.01 0.01 0.01 0.01 0.00 0.00 0.01 0.01 0.01 0.01 0.01 0.01 0.01 0.01
0.02 0.02 0.03 0.03 0.05 0.05 0.03 0.02 0.02 0.02 0.01 0.02 0.02 0.02 0.02 0.02 0.03 0.03 0.03 0.02 0.02 0.02 0.02 0.02 0.01 0.01 0.01 0.01 0.01 0.01 0.01 0.01 0.01 0.01 0.00 0.01 0.01 0.01 0.01 0.01 0.00 0.00 0.00
0.03 0.02 0.02 0.02 0.02 0.03 0.03 0.02 0.01 0.01 0.01 0.01 0.01 0.01 0.01 0.02 0.02 0.01 0.02 0.02 0.02 0.02 0.02 0.02 0.01 0.01 0.02 0.02 0.02 0.02 0.02 0.02 0.01 0.01 0.01 0.01 0.01 0.01 0.01 0.01 0.00 0.00 0.00
0.03 0.03 0.02 0.03 0.03 0.03 0.04 0.02 0.01 0.01 0.01 0.01 0.01 0.01 0.01 0.01 0.01 0.01 0.01 0.01 0.01 0.01 0.01 0.01 0.01 0.01 0.01 0.02 0.02 0.02 0.02 0.03 0.02 0.01 0.01 0.01 0.01 0.01 0.01 0.01 0.01 0.00 0.00
0.03 0.02 0.02 0.03 0.03 0.04 0.05 0.04 0.03 0.01 0.01 0.01 0.01 0.01 0.02 0.01 0.01 0.01 0.01 0.01 0.01 0.01 0.01 0.02 0.01 0.01 0.01 0.01 0.01 0.01 0.01 0.02 0.02 0.01 0.01 0.01 0.01 0.01 0.01 0.01 0.01 0.00 0.00
0.03 0.03 0.02 0.03 0.04 0.05 0.05 0.04 0.03 0.02 0.01 0.01 0.01 0.01 0.02 0.02 0.02 0.01 0.01 0.00 0.00 0.01 0.01 0.01 0.01 0.01 0.00 0.00 0.00 0.00 0.01 0.01 0.01 0.01 0.01 0.01 0.01 0.01 0.01 0.01 0.01 0.00 0.00
MSLP
1010.51 1010.69 1010.88 1011.14 1011.48 1011.93 1012.49 1013.13 1013.83 1014.54 1015.20 1015.79 1016.28 1016.69 1017.02 1017.30 1017.55 1017.81 1018.08 1018.35 1018.63 1018.90 1019.14 1019.35 1019.52 1019.66 1019.78 1019.87 1019.95 1020.01 1020.04 1020.05 1020.02 1019.96 1019.86 1019.72 1019.55 1019.36 1019.14 1018.89 1018.62 1018.32 1018.00
1011.07 1011.23 1011.41 1011.65 1011.99 1012.44 1013.01 1013.67 1014.41 1015.16 1015.89 1016.54 1017.10 1017.56 1017.93 1018.23 1018.48 1018.70 1018.92 1019.14 1019.36 1019.58 1019.79 1019.98 1020.14 1020.27 1020.36 1020.43 1020.46 1020.46 1020.44 1020.39 1020.32 1020.24 1020.14 1020.04 1019.93 1019.80 1019.66 1019.48 1019.27 1019.02 1018.73
1011.60 1011.75 1011.93 1012.18 1012.52 1012.99 1013.58 1014.28 1015.05 1015.85 1016.63 1017.35 1017.97 1018.49 1018.89 1019.20 1019.43 1019.61 1019.77 1019.91 1020.06 1020.22 1020.37 1020.52 1020.66 1020.76 1020.84 1020.87 1020.86 1020.82 1020.74 1020.64 1020.52 1020.41 1020.31 1020.23 1020.15 1020.08 1020.00 1019.89 1019.74 1019.54 1019.30
1012.09 1012.25 1012.45 1012.72 1013.09 1013.59 1014.20 1014.93 1015.72 1016.56 1017.38 1018.13 1018.80 1019.35 1019.79 1020.10 1020.32 1020.47 1020.57 1020.65 1020.72 1020.80 1020.89 1020.99 1021.09 1021.16 1021.21 1021.22 1021.18 1021.10 1020.97 1020.83 1020.67 1020.53 1020.42 1020.33 1020.27 1020.22 1020.18 1020.12 1020.02 1019.88 1019.69
1012.56 1012.74 1012.97 1013.28 1013.69 1014.21 1014.84 1015.57 1016.37 1017.21 1018.04 1018.81 1019.50 1020.08 1020.54 1020.87 1021.10 1021.23 1021.29 1021.32 1021.33 1021.34 1021.37 1021.42 1021.47 1021.51 1021.53 1021.52 1021.46 1021.35 1021.20 1021.02 1020.84 1020.67 1020.53 1020.42 1020.35 1020.31 1020.28 1020.23 1020.16 1020.05 1019.90
1013.03 1013.23 1013.50 1013.85 1014.29 1014.83 1015.47 1016.18 1016.96 1017.77 1018.57 1019.33 1020.02 1020.62 1021.10 1021.47 1021.71 1021.85 1021.91 1021.92 1021.89 1021.86 1021.84 1021.84 1021.84 1021.85 1021.84 1021.81 1021.73 1021.61 1021.45 1021.27 1021.07 1020.88 1020.71 1020.59 1020.49 1020.42 1020.37 1020.32 1020.25 1020.14 1020.01
1013.50 1013.73 1014.04 1014.42 1014.89 1015.44 1016.06 1016.74 1017.46 1018.21 1018.95 1019.68 1020.35 1020.95 1021.46 1021.86 1022.16 1022.34 1022.43 1022.45 1022.42 1022.37 1022.32 1022.27 1022.24 1022.21 1022.17 1022.12 1022.04 1021.92 1021.76 1021.58 1021.39 1021.19 1021.02 1020.86 1020.74 1020.64 1020.55 1020.46 1020.36 1020.24 1020.10
1013.98 1014.24 1014.58 1014.99 1015.48 1016.02 1016.60 1017.23 1017.87 1018.53 1019.20 1019.86 1020.50 1021.10 1021.63 1022.08 1022.43 1022.68 1022.83 1022.90 1022.90 1022.85 1022.79 1022.71 1022.65 1022.59 1022.53 1022.46 1022.37 1022.26 1022.12 1021.96 1021.78 1021.60 1021.43 1021.26 1021.11 1020.98 1020.84 1020.71 1020.56 1020.41 1020.25
1014.46 1014.74 1015.11 1015.54 1016.03 1016.56 1017.10 1017.65 1018.21 1018.77 1019.35 1019.93 1020.52 1021.10 1021.65 1022.14 1022.56 1022.89 1023.11 1023.24 1023.28 1023.27 1023.21 1023.12 1023.04 1022.95 1022.87 1022.78 1022.70 1022.59 1022.48 1022.34 1022.20 1022.05 1021.89 1021.74 1021.58 1021.42 1021.25 1021.07 1020.88 1020.69 1020.49
1014.91 1015.21 1015.60 1016.05 1016.54 1017.05 1017.54 1018.03 1018.50 1018.96 1019.44 1019.94 1020.47 1021.01 1021.56 1022.08 1022.55 1022.94 1023.23 1023.43 1023.53 1023.56 1023.52 1023.44 1023.35 1023.24 1023.15 1023.05 1022.96 1022.86 1022.77 1022.67 1022.56 1022.45 1022.33 1022.19 1022.05 1021.89 1021.70 1021.50 1021.28 1021.06 1020.82
1015.31 1015.63 1016.04 1016.50 1016.99 1017.48 1017.94 1018.36 1018.75 1019.13 1019.52 1019.94 1020.39 1020.89 1021.41 1021.93 1022.42 1022.85 1023.20 1023.45 1023.61 1023.68 1023.68 1023.62 1023.53 1023.43 1023.32 1023.21 1023.12 1023.03 1022.95 1022.87 1022.80 1022.73 1022.65 1022.55 1022.44 1022.30 1022.13 1021.92 1021.70 1021.45 1021.19
1015.64 1015.98 1016.40 1016.87 1017.36 1017.84 1018.27 1018.65 1018.99 1019.30 1019.62 1019.95 1020.33 1020.76 1021.23 1021.71 1022.19 1022.63 1023.00 1023.30 1023.50 1023.62 1023.66 1023.64 1023.57 1023.48 1023.38 1023.27 1023.17 1023.08 1023.00 1022.93 1022.88 1022.84 1022.80 1022.74 1022.67 1022.57 1022.43 1022.25 1022.04 1021.79 1021.54
1015.89 1016.24 1016.67 1017.15 1017.64 1018.11 1018.54 1018.90 1019.21 1019.47 1019.73 1020.00 1020.31 1020.66 1021.06 1021.48 1021.91 1022.32 1022.69 1023.00 1023.23 1023.39 1023.48 1023.51 1023.49 1023.43 1023.34 1023.24 1023.13 1023.03 1022.94 1022.87 1022.82 1022.79 1022.76 1022.74 1022.71 1022.65 1022.56 1022.42 1022.24 1022.02 1021.78
1016.07 1016.43 1016.87 1017.35 1017.84 1018.31 1018.73 1019.09 1019.39 1019.64 1019.87 1020.09 1020.34 1020.61 1020.93 1021.27 1021.63 1021.98 1022.32 1022.62 1022.87 1023.07 1023.22 1023.31 1023.34 1023.33 1023.28 1023.19 1023.08 1022.96 1022.84 1022.74 1022.66 1022.61 1022.59 1022.58 1022.58 1022.55 1022.50 1022.41 1022.28 1022.10 1021.89
1016.22 1016.58 1017.00 1017.47 1017.96 1018.43 1018.86 1019.24 1019.55 1019.81 1020.02 1020.22 1020.42 1020.63 1020.86 1021.12 1021.39 1021.68 1021.97 1022.24 1022.51 1022.74 1022.94 1023.10 1023.21 1023.25 1023.24 1023.17 1023.06 1022.92 1022.76 1022.62 1022.49 1022.40 1022.35 1022.33 1022.32 1022.32 1022.30 1022.24 1022.15 1022.01 1021.83
1016.36 1016.70 1017.11 1017.56 1018.04 1018.50 1018.94 1019.34 1019.67 1019.95 1020.18 1020.38 1020.55 1020.71 1020.88 1021.06 1021.25 1021.46 1021.70 1021.95 1022.22 1022.48 1022.74 1022.96 1023.14 1023.25 1023.29 1023.25 1023.14 1022.98 1022.78 1022.57 1022.38 1022.23 1022.12 1022.06 1022.03 1022.01 1022.00 1021.96 1021.89 1021.78 1021.63
1016.51 1016.83 1017.21 1017.64 1018.09 1018.55 1019.00 1019.41 1019.77 1020.08 1020.34 1020.55 1020.72 1020.86 1020.98 1021.10 1021.23 1021.38 1021.57 1021.79 1022.05 1022.34 1022.64 1022.93 1023.17 1023.35 1023.44 1023.43 1023.33 1023.15 1022.91 1022.65 1022.39 1022.16 1021.98 1021.85 1021.76 1021.71 1021.67 1021.62 1021.55 1021.45 1021.30
1016.68 1016.98 1017.33 1017.73 1018.15 1018.60 1019.04 1019.46 1019.86 1020.20 1020.50 1020.73 1020.92 1021.06 1021.16 1021.24 1021.33 1021.43 1021.58 1021.77 1022.03 1022.33 1022.66 1022.99 1023.28 1023.52 1023.66 1023.69 1023.60 1023.42 1023.15 1022.84 1022.51 1022.21 1021.95 1021.74 1021.58 1021.46 1021.37 1021.28 1021.17 1021.05 1020.90
1016.86 1017.15 1017.48 1017.84 1018.24 1018.66 1019.09 1019.52 1019.93 1020.30 1020.63 1020.90 1021.11 1021.26 1021.37 1021.44 1021.50 1021.58 1021.69 1021.87 1022.10 1022.40 1022.74 1023.10 1023.43 1023.70 1023.88 1023.95 1023.89 1023.71 1023.44 1023.09 1022.72 1022.36 1022.02 1021.73 1021.49 1021.29 1021.11 1020.96 1020.79 1020.62 1020.43
1017.01 1017.30 1017.62 1017.97 1018.34 1018.74 1019.16 1019.58 1019.99 1020.38 1020.73 1021.03 1021.27 1021.45 1021.57 1021.64 1021.70 1021.76 1021.86 1022.01 1022.22 1022.51 1022.84 1023.20 1023.54 1023.84 1024.05 1024.15 1024.11 1023.96 1023.70 1023.35 1022.96 1022.55 1022.16 1021.80 1021.47 1021.18 1020.92 1020.67 1020.42 1020.18 1019.93
1017.10 1017.41 1017.74 1018.08 1018.44 1018.82 1019.22 1019.63 1020.03 1020.42 1020.78 1021.10 1021.37 1021.57 1021.71 1021.81 1021.88 1021.94 1022.02 1022.15 1022.34 1022.59 1022.90 1023.24 1023.58 1023.88 1024.10 1024.22 1024.23 1024.11 1023.88 1023.56 1023.17 1022.75 1022.32 1021.90 1021.50 1021.12 1020.76 1020.41 1020.07 1019.74 1019.41
1017.08 1017.43 1017.79 1018.15 1018.51 1018.88 1019.26 1019.65 1020.03 1020.41 1020.77 1021.10 1021.38 1021.61 1021.78 1021.90 1021.99 1022.06 1022.14 1022.25 1022.41 1022.63 1022.89 1023.20 1023.51 1023.80 1024.03 1024.17 1024.21 1024.13 1023.94 1023.66 1023.31 1022.90 1022.46 1022.01 1021.55 1021.09 1020.64 1020.19 1019.75 1019.32 1018.90
1016.93 1017.34 1017.73 1018.12 1018.50 1018.87 1019.24 1019.61 1019.98 1020.34 1020.69 1021.02 1021.31 1021.56 1021.76 1021.91 1022.02 1022.11 1022.19 1022.29 1022.43 1022.61 1022.83 1023.09 1023.36 1023.63 1023.85 1024.00 1024.07 1024.03 1023.90 1023.67 1023.36 1022.98 1022.55 1022.08 1021.59 1021.07 1020.54 1020.00 1019.47 1018.94 1018.44
1016.63 1017.10 1017.55 1017.98 1018.39 1018.78 1019.14 1019.50 1019.85 1020.19 1020.53 1020.86 1021.16 1021.43 1021.66 1021.84 1021.99 1022.10 1022.20 1022.30 1022.42 1022.57 1022.75 1022.96 1023.19 1023.41 1023.61 1023.77 1023.85 1023.86 1023.78 1023.60 1023.34 1023.00 1022.59 1022.13 1021.61 1021.06 1020.47 1019.86 1019.24 1018.63 1018.05
1016.19 1016.72 1017.22 1017.71 1018.15 1018.56 1018.94 1019.30 1019.64 1019.98 1020.31 1020.64 1020.95 1021.24 1021.50 1021.72 1021.91 1022.06 1022.18 1022.29 1022.41 1022.53 1022.68 1022.85 1023.03 1023.22 1023.39 1023.53 1023.62 1023.65 1023.60 1023.47 1023.26 1022.96 1022.58 1022.14 1021.62 1021.05 1020.43 1019.77 1019.10 1018.42 1017.77
1015.63 1016.20 1016.77 1017.30 1017.79 1018.23 1018.64 1019.01 1019.36 1019.70 1020.04 1020.38 1020.71 1021.02 1021.31 1021.58 1021.81 1022.00 1022.15 1022.29 1022.41 1022.52 1022.65 1022.78 1022.92 1023.07 1023.21 1023.32 1023.41 1023.44 1023.41 1023.32 1023.14 1022.87 1022.53 1022.11 1021.61 1021.04 1020.41 1019.73 1019.03 1018.32 1017.62
Thickness
5734 5733 5732 5731 5730 5729 5728 5726 5725 5724 5723 5723 5722 5722 5721 5721 5721 5720 5720 5719 5718 5718 5718 5717 5716 5716 5716 5715 5715 5714 5714 5713 5712 5710 5709 5708 5707 5706 5706 5705 5704 5703 5702
5732 5730 5729 5728 5727 5726 5725 5724 5722 5721 5720 5719 5718 5718 5718 5718 5718 5718 5717 5716 5715 5715 5715 5714 5714 5713 5713 5712 5712 5711 5710 5709 5708 5707 5706 5705 5705 5704 5703 5702 5702 5701 5699
5730 5728 5726 5725 5724 5723 5722 5721 5719 5718 5717 5716 5715 5715 5715 5715 5715 5714 5714 5713 5713 5712 5712 5711 5711 5710 5710 5709 5709 5708 5707 5706 5705 5704 5703 5703 5702 5701 5700 5700 5699 5698 5697
5727 5726 5724 5723 5722 5720 5719 5717 5716 5714 5712 5711 5711 5711 5711 5711 5712 5711 5711 5710 5709 5709 5709 5708 5708 5707 5707 5706 5706 5705 5705 5704 5703 5702 5701 5700 5699 5698 5698 5697 5696 5696 5695
5724 5723 5721 5720 5719 5717 5715 5714 5712 5710 5708 5707 5707 5707 5707 5707 5708 5708 5707 5707 5706 5706 5705 5705 5704 5704 5704 5703 5703 5703 5702 5701 5700 5699 5698 5697 5696 5696 5695 5694 5693 5693 5692
5721 5720 5718 5716 5715 5713 5711 5710 5708 5707 5705 5704 5704 5703 5703 5703 5704 5704 5704 5703 5703 5703 5702 5702 5701 5701 5700 5700 5700 5700 5699 5698 5697 5697 5696 5695 5694 5692 5692 5691 5690 5689 5689
5718 5716 5715 5713 5711 5710 5708 5707 5704 5702 5701 5700 5698 5697 5698 5699 5700 5700 5700 5699 5699 5699 5699 5698 5698 5697 5697 5697 5696 5696 5696 5695 5694 5694 5693 5692 5691 5689 5688 5687 5686 5686 5685
5714 5712 5711 5709 5708 5706 5703 5703 5702 5699 5697 5697 5694 5691 5689 5691 5694 5696 5696 5695 5695 5695 5695 5695 5694 5694 5693 5693 5693 5693 5692 5692 5691 5691 5690 5688 5687 5687 5685 5684 5683 5682 5681
5710 5709 5708 5706 5704 5703 5700 5699 5699 5698 5694 5693 5693 5690 5685 5683 5685 5689 5691 5691 5691 5691 5691 5691 5691 5690 5690 5689 5689 5689 5689 5688 5688 5687 5686 5685 5684 5683 5682 5681 5680 5679 5678
5706 5705 5704 5702 5701 5700 5698 5697 5696 5696 5694 5690 5688 5688 5686 5685 5682 5681 5684 5685 5686 5686 5687 5687 5687 5687 5686 5686 5686 5686 5685 5685 5684 5683 5682 5681 5680 5680 5679 5678 5677 5676 5675
5702 5701 5700 5698 5697 5696 5695 5694 5692 5692 5691 5689 5686 5684 5682 5681 5681 5678 5677 5679 5681 5682 5683 5683 5684 5683 5683 5683 5682 5682 5682 5681 5680 5680 5679 5678 5677 5676 5676 5675 5674 5673 5672
5697 5697 5696 5695 5694 5693 5691 5690 5689 5688 5687 5686 5685 5683 5681 5679 5677 5676 5674 5673 5674 5678 5679 5680 5680 5680 5680 5679 5679 5679 5678 5678 5677 5676 5675 5674 5673 5673 5672 5672 5671 5670 5669
5692 5692 5692 5691 5690 5689 5688 5687 5685 5684 5683 5683 5682 5681 5680 5679 5677 5675 5673 5671 5670 5673 5674 5676 5677 5676 5676 5676 5676 5675 5674 5674 5673 5672 5671 5670 5669 5669 5668 5668 5667 5666 5665
5689 5689 5688 5687 5687 5686 5685 5683 5682 5681 5679 5679 5679 5678 5677 5676 5675 5674 5672 5669 5667 5667 5669 5671 5672 5672 5672 5672 5671 5671 5670 5669 5668 5668 5667 5666 5665 5665 5664 5664 5663 5662 5661
5685 5683 5683 5683 5682 5682 5681 5679 5678 5676 5675 5675 5675 5674 5673 5673 5672 5672 5671 5669 5665 5663 5664 5666 5667 5668 5667 5667 5666 5666 5665 5664 5663 5663 5663 5662 5661 5661 5661 5660 5659 5659 5658
5680 5679 5679 5678 5677 5677 5676 5675 5673 5672 5671 5671 5671 5670 5669 5669 5668 5668 5667 5666 5665 5663 5661 5662 5662 5662 5662 5662 5662 5661 5660 5659 5659 5659 5659 5658 5658 5657 5657 5656 5655 5654 5654
5675 5674 5674 5673 5673 5672 5671 5669 5668 5667 5666 5666 5666 5666 5666 5665 5664 5664 5663 5662 5661 5660 5658 5658 5658 5657 5657 5657 5657 5656 5655 5655 5655 5655 5654 5654 5654 5653 5653 5652 5652 5651 5650
5670 5669 5669 5668 5669 5667 5666 5664 5663 5663 5662 5662 5662 5662 5662 5661 5660 5660 5659 5658 5657 5656 5655 5653 5653 5652 5652 5652 5651 5650 5651 5650 5650 5651 5650 5650 5650 5649 5649 5648 5648 5647 5646
5666 5664 5664 5664 5664 5663 5662 5661 5660 5659 5658 5658 5658 5658 5658 5657 5656 5655 5655 5654 5653 5652 5650 5649 5648 5647 5646 5646 5645 5645 5646 5645 5646 5646 5646 5646 5645 5645 5645 5645 5644 5643 5642
5660 5660 5659 5658 5658 5658 5657 5656 5655 5654 5653 5653 5653 5654 5654 5653 5653 5652 5651 5649 5648 5646 5645 5643 5642 5641 5640 5640 5639 5639 5640 5640 5641 5642 5641 5641 5641 5641 5641 5641 5640 5639 5638
5656 5655 5654 5653 5653 5652 5652 5651 5650 5650 5649 5648 5649 5649 5650 5650 5650 5649 5648 5646 5644 5641 5640 5638 5637 5636 5635 5634 5634 5634 5634 5634 5635 5635 5636 5637 5637 5637 5637 5637 5636 5636 5635
5651 5650 5649 5648 5648 5649 5648 5647 5646 5645 5644 5644 5644 5644 5644 5645 5645 5644 5644 5642 5640 5638 5635 5634 5632 5631 5631 5630 5629 5628 5628 5628 5629 5631 5630 5632 5632 5632 5633 5633 5633 5632 5631
5645 5644 5644 5643 5643 5644 5644 5643 5642 5642 5641 5640 5639 5639 5640 5641 5639 5639 5638 5637 5635 5634 5633 5632 5630 5630 5629 5627 5625 5623 5623 5623 5624 5625 5624 5627 5628 5628 5630 5630 5630 5629 5628
5640 5639 5638 5638 5638 5639 5639 5638 5637 5637 5636 5636 5636 5635 5634 5634 5635 5634 5632 5631 5630 5629 5628 5628 5628 5628 5626 5624 5622 5621 5620 5619 5620 5620 5619 5620 5623 5624 5626 5627 5627 5626 5625
5635 5634 5634 5634 5633 5634 5633 5633 5632 5631 5631 5631 5631 5631 5630 5630 5630 5628 5627 5626 5625 5624 5624 5623 5623 5622 5621 5620 5618 5616 5615 5614 5616 5617 5615 5615 5618 5619 5621 5623 5623 5622 5621
5630 5629 5629 5629 5629 5629 5629 5628 5627 5627 5626 5626 5626 5626 5626 5625 5624 5623 5622 5621 5620 5620 5618 5618 5616 5616 5615 5614 5613 5613 5612 5611 5611 5612 5613 5611 5612 5612 5615 5618 5617 5617 5616